Regional Weather Roundup
Issued by NWS Wakefield, VA

Home | Current Version | Previous Version | Text Only | Print | Product List | Glossary On
Versions: 1 2 3 4 5 6 7 8 9 10 11 12 13 14 15 16 17 18 19 20 21 22 23 24 25 26 27 28 29 30 31 32 33 34 35 36 37 38 39 40 41 42 43 44 45 46 47 48 49 50
000
ASUS41 KAKQ 261810
RWRAKQ

REGIONAL WEATHER ROUNDUP
NATIONAL WEATHER SERVICE WAKEFIELD VA
100 PM EST MON JAN 26 2015

Note: "fair" indicates few or no clouds below 12,000 feet with no
significant weather and/or obstructions to visibility. * = Denotes
station may not report precipitation (e.g., rain,snow,etc.),
thunder or fog.

VAZ042-051-052>054-056-261900-
NORTHERN VIRGINIA

CITY           SKY/WX    TMP DP  RH WIND       PRES   REMARKS
WASH NATIONAL  LGT SNOW  35  29  78 NE13      29.74F
DULLES         LGT SNOW  32  29  88 NE10      29.73F FOG     WCI  24
FORT BELVOIR   CLOUDY    32  32 100 VRB5      29.73F
QUANTICO       CLOUDY    35  31  85 NE14      29.73F
FREDERICKSBRG* CLOUDY    38  38 100 NE10      29.69F
STAFFORD*      CLOUDY    36  50 100 NE8       29.74F
WARRENTON      DRIZZLE   36  36 100 NE9       29.71F
CULPEPER*      DRIZZLE   36  36 100 MISG      29.71F
MANASSAS*      FLURRIES  34  34 100 N8        29.73F
LEESBURG*      LGT SNOW  32  32 100 NE8       29.74F
WINCHESTER     LGT SNOW  32  30  93 N5        29.73F
FRONT ROYAL*   CLOUDY    32  32 100 NE8       29.71F
LURAY*         CLOUDY    36  36 100 N12       29.68F
$$

VAZ048-049-060>072-079>083-261900-
CENTRAL AND SOUTH CENTRAL VIRGINIA

CITY           SKY/WX    TMP DP  RH WIND       PRES   REMARKS
RICHMOND       CLOUDY    50  42  74 N12       29.63F
CHESTERFIELD*  CLOUDY    46  34  61 N7        29.65F
PETERSBURG*    MOSUNNY   52  37  57 NE6       29.63F
HANOVER        CLOUDY    41  39  93 VRB6      29.66F
TAPPAHANNOCK*  CLOUDY    43  36  75 N9        29.66F
QUINTON*       FAIR      51  38  62 N8        29.62F
CHARLOTTSVILLE CLOUDY    36  34  92 NE10      29.67F
GORDONSVILLE*  CLOUDY    36  35  95 N8        29.67F
ORANGE*        CLOUDY    36  36 100 N6        29.70F
LOUISA*        CLOUDY    39  37  93 N10       29.66F
BUMPASS*       CLOUDY    37  36  96 N5        29.67F
FARMVILLE*     CLOUDY    42  42 100 N6        29.64F
CREWE*         CLOUDY    43  40  90 N3        29.63F
FORT PICKETT*  CLOUDY    46  41  82 N3        29.62S
CHASE CITY*    CLOUDY    44  44 100 NW5       29.63F
CLARKSVILLE*   CLOUDY    43  41  93 NW3       29.63F
SOUTH HILL*    CLOUDY    47  41  77 N3        29.66F
LAWRENCEVILLE* MOCLDY    50  42  72 CALM      29.61F
EMPORIA*       MOSUNNY   52  37  58 NW5       29.60F
$$

VAZ088>098-261900-
SOUTHEAST VIRGINIA

CITY           SKY/WX    TMP DP  RH WIND       PRES   REMARKS
NORFOLK        CLOUDY    43  38  82 N7        29.61F
VIRGINIA BEACH CLOUDY    48  41  76 N8        29.59F
NORFOLK NAVAL  CLOUDY    47  39  74 N13       29.61F
WEST POINT*    PTSUNNY   51  38  62 NE8       29.64F
SALUDA*        CLOUDY    45  39  81 N8        29.62F
NEWPORT NEWS   PTSUNNY   52  41  66 NE7       29.62F
LANGLEY AFB    PTSUNNY   46  40  81 NE10      29.61F
FORT EUSTIS    MOSUNNY   51  43  73 E6        29.60F
WILLIAMSBURG*    N/A     57  43  58 NE5       29.62F
HR EXEC AP*    FAIR      48  39  71 NE7       29.62F
FRANKLIN*      PTSUNNY   51  38  62 NE7       29.61R
WAKEFIELD      MOSUNNY   54  37  52 NE7       29.61F
$$

VAZ020-022-025-037-045-261900-
WEST CENTRAL AND SOUTHWEST VIRGINIA

CITY           SKY/WX    TMP DP  RH WIND       PRES   REMARKS
STAUNTON*      CLOUDY    34  32  94 CALM      29.68F FOG
WAYNESBORO*    CLOUDY    33  33  99 N7        29.65F
HOT SPRINGS VA FOG       33  33 100 CALM      29.54F VSB<1/4
LYNCHBURG      CLOUDY    38  38 100 NE9       29.65F
DANVILLE       CLOUDY    47  37  68 N7        29.64S
SOUTH BOSTON*  CLOUDY    42  40  91 CALM      29.64S
MARTINSVILLE   DRIZZLE   44  39  82 NE6       29.65F
ROANOKE        CLOUDY    44  35  70 N5        29.64F
BLACKSBURG     CLOUDY    42  33  72 CALM      29.64F
DUBLIN*        CLOUDY    43  37  77 CALM      29.63F
MARION*        CLOUDY    38  37  94 SW9       29.66F
HILLSVILLE*    MIX PCPN  38  35  92 NW9G16    29.60F
RICHLANDS*     FLURRIES  32  29  88 NW10G16   29.67S WCI  24
WISE*          FLURRIES  30  28  93 W14G21    29.72S WCI  20
ABINGDON*      CLOUDY    37  32  84 NW7       29.69F
$$

MDZ021>025-VAZ099-100-261900-
SOUTHERN MARYLAND AND THE DELMARVA PENINSULA

CITY           SKY/WX    TMP DP  RH WIND       PRES   REMARKS
PATUXENT RIVER CLOUDY    38  34  85 N14       29.67F
BAY BRIDGE APT   N/A     32  32 100 NE8       29.74F
LEONARDTOWN    CLOUDY    36  34  93 N6        29.68F
DOVER          LGTSLEET  36  36 100 N10G21    29.74F FOG
GEORGETOWN     LGT RAIN  40  37  89 NE14      29.69F FOG
EASTON         CLOUDY    37  37 100 NE17G29   29.75F
CAMBRIDGE      CLOUDY    41  36  81 NE10G18   29.68F
SALISBURY      CLOUDY    48  41  76 NE14      29.65F
OCEAN CITY     CLOUDY    45  42  89 VRB7      29.64F
WALLOPS ISLAND LGT RAIN  47  42  83 N9        29.62F
ACCOMACK*      CLOUDY    46  41  81 N7        29.60F
$$

NCZ012>017-030>032-261900-
NORTH CENTRAL AND EASTERN NORTH CAROLINA

CITY           SKY/WX    TMP DP  RH WIND       PRES   REMARKS
ROANOKE RAPIDS FAIR      48  43  81 CALM      29.59F
RALEIGH        CLOUDY    48  42  80 N3        29.62F
ELIZABETH CITY CLOUDY    51  44  77 N6        29.58F
AHOSKIE*       PTSUNNY   51  40  68 NE6       29.60F
EDENTON*       CLOUDY    51  44  77 N8        29.58F
CURRITUCK*     CLOUDY    49  42  75 N7        29.59S
KILL DEVIL HLS CLOUDY    50  47  92 N3        29.54F
MANTEO         CLOUDY    50  46  87 NW5       29.54F
CAPE HATTERAS  CLOUDY    52  43  71 NW3       29.54F
TARBORO*       FAIR      52  43  72 NE7       29.59F
GOLDSBORO      MOSUNNY   53  48  82 NW7       29.56F
WASHINGTON     CLOUDY    48  42  80 N3        29.57F
GREENVILLE     PTSUNNY   52  41  66 N5        29.60F
NEW BERN       CLOUDY    52  41  66 NW5       29.57F
WILMINGTON     MOSUNNY   55  43  63 NW8       29.58F
$$

VAZ048-261900-
ELSEWHERE

CITY           SKY/WX    TMP DP  RH WIND       PRES   REMARKS
HARRISBURG PA  LGT SNOW  23  18  81 NE7       29.81F
BALTIMORE      LGTSLEET  31  28  89 NE15      29.75F WCI  20
ANNAPOLIS      CLOUDY    32  29  88 NE13      29.74F WCI  22
ANDREWS AFB    NOT AVBL
PHILADELPHIA   FLURRIES  30  25  81 NE22      29.82F WCI  17
HENDERSON NC     N/A     46  40  78 N6        29.62F
GREENSBORO     CLOUDY    45  35  68 NW8       29.61F
ROCKY MOUNT    PTSUNNY   49  43  80 N7        29.59F
$$

VAZ100-261900-
MARINE

STATION/POSITION TIME  TEMP    WIND        PRES    WAVE   SWELL
                       AIR SEA DIR/SP/G            HT/PER HT/PER
                 (UTC) (F)     (DEG/KT/KT) (MB)    (FT/S) (FT/S)
BRANDYWINE LGT   1800   38 37   50/ 23/ 27 1005.9F
CAPE MAY NJ      1800   40 39   40/ 17/ 26 1005.0F
LEWES DE         1800   41 38   60/ 25/ 32 1004.5F
15NM E FENWICK I 1800   46 43              1002.5F   7/ 7
OCEAN-CITY-INLET 1800   43 40   10/  6/  9 1003.5F
WACHAPREAGUE VA  1800   48 42   30/ 10/ 12 1002.2F
THOMAS POINT MD  1800   32 37   20/ 18/ 19 1007.5F
GOOSES REEF MD   1800   36 37  VRB 14/ 16  1004.7F   2/ 2
COVE POINT MD    1800   36      30/ 14/ 16 1005.3F
SOLOMONS ISLAND  1800      38                N/A
BISHOPS HEAD MD  1800   41 40   20/  9/ 14 1003.5F
PINEY POINT MD   1800           40/ 10/ 13   N/A
POTOMAC MD       1800   40 38   30/ 17/ 19 1002.5F   1
CAMBRIDGE MD     1800   38 36   50/ 13/ 17 1005.4F
LEWISETTA VA     1800   40 40  360/  8/ 12 1003.8F
RAPPAHANNOCK LGT 1800          360/ 13/ 14 1003.0F
STINGRAY PT      1800   40 40   10/ 14/ 16 1003.8F   1/ 3
YORK RVR RNG VA  1800   43      20/ 11/ 12 1002.1F
YORKTOWN VA      1800   45 41   20/ 10/ 13 1002.6F
JAMESTOWN VA     1800   48 42  200/  4/  8   N/A     0
DOMINION TERM VA 1800   47      30/  7/ 11 1002.5S
KIPTOPEKE VA     1800      46  360/  6/  9   N/A
CHES BAY BRIDGE  1800   41 42  350/ 16/ 17 1001.7R
CAPE HENRY VA    1800   42     350/ 13/ 16 1000.8R
CHESAPEAKE LGHT  1700   44     350/ 15/ 16 1003.3F
WILLOUBY STN VA  1800   44     360/ 12/ 14 1002.9S
S CRANEY ISL VA  1800           30/  8/ 11 1002.4R
CAPE HENRY BUOY  1800      44                N/A     2/ 9
1ST LANDING BUOY 1800   42 42  350/ 12/ 14 1001.9S   2/ 3
CAPE CHARLES BUO 1700      43                N/A     2/ 9   2/ 9
OFFSHORE WE BUOY 1800      47                N/A     2/ 9   2/ 9
64NM E OF VA BCH 1800   55 52   70/ 12/ 14  999.2F   3/ 4   2/ 8
DUCK PIER NC     1800   45 44  340/ 10/ 10 1000.2F
44100 DUCK FRF   1800      45                N/A     2/ 8
44056 DUCK FRF   1800      44                N/A     2/ 9
OREGON INLET NC  1800   50 47  360/  4/  5 1000.2F
HATTERAS NC      1800   51 53  350/  4/  5 1000.7F


USA.gov is the U.S. government's official web portal to all federal, state and local government web resources and services.